User: anonymous   Login
Location: Unspecified
(0.0000°N, 0.0000°E)
Time: 12:17:18
(UTC+00:00)
Language:

Altair - Orbit

View from above orbital plane
View from above orbital plane
View from above satellite
View from above satellite

Ground track
Ground track

The orbit data is extracted from the following two-line orbital elements,

1 00050U 60009B   15183.49168541 -.00000067  00000-0  16980-3 0  9997
2 00050 047.2332 344.9140 0113390 325.6692 033.6808 12.20091936449449
Epoch (UTC): 02 July 2015 11:48:01
Eccentricity: 0.0113390
inclination: 47.2332°
perigee height: 1502 km
apogee height: 1682 km
right ascension of ascending node: 344.9140°
argument of perigee: 325.6692°
revolutions per day: 12.20091936
mean anomaly at epoch: 33.6808°
orbit number at epoch: 44944

The dashed part of the orbit path shows where the satellite is in the earth's shadow,  

DLR